Anchorage Merrill, AK

12:01 PM AKDT on August 21, 2017 (GMT -0800)
Merrill

Weather History for PAMR - November, 2014

Change the Weather History Date:

Tuesday, November 11, 2014

  Actual Average Record
Temperature  
Mean Temperature 36 °F -  
Max Temperature 42 °F 28 °F 43 °F (2000)
Min Temperature 32 °F 18 °F 1 °F (2006)
Degree Days  
Heating Degree Days 30    
Moisture  
Dew Point 32 °F    
Average Humidity 83    
Maximum Humidity 89    
Minimum Humidity 70    
Precipitation  
Precipitation 0.00 in - - ()
Sea Level Pressure  
Sea Level Pressure 30.04 in    
Wind  
Wind Speed 4 mph (NNW)    
Max Wind Speed 9 mph    
Max Gust Speed -    
Visibility 10 miles    
Events      
Averages and records for this station are not official NWS values.
T = Trace of Precipitation, MM = Missing Value Source: NWS Daily Summary

Daily Weather History Graph

Daily Weather History Graph

Search for Another Location

Airport or City:

Trip Planner

Search our weather history database for the weather conditions in past years. The results will help you decide how hot, cold, wet, or windy it might be!

Date:

Astronomy

Nov. 11, 2014 Rise Set
Actual Time 8:55 AM AKST 4:30 PM AKST
Civil Twilight 8:04 AM AKST 5:21 PM AKST
Nautical Twilight 7:11 AM AKST 6:14 PM AKST
Astronomical Twilight 6:20 AM AKST 7:05 PM AKST
Moon 9:05 PM AKST (11/11) 1:10 PM AKST (11/11)
Length of Visible Light 9h 16m
Length of Day
7h 35m
Waning Gibbous, 75% of the Moon is Illuminated
Nov 11
Waning Gibbous
Nov 14
Last Quarter
Nov 22
New
Nov 29
First Quarter
Dec 6
Full

Hourly Weather History & Observations

Time (AKST) Temp. Windchill Dew Point Humidity Pressure Visibility Wind Dir Wind Speed Gust Speed Precip Events Conditions
12:53 AM 34.0 °F 27.2 °F 30.9 °F 89% 30.09 in 10.0 mi West 8.1 mph - N/A   Overcast
1:53 AM 34.0 °F 31.0 °F 30.9 °F 89% 30.09 in 10.0 mi Variable 3.5 mph - N/A   Overcast
2:53 AM 32.0 °F - 28.9 °F 88% 30.07 in 10.0 mi Calm Calm - N/A   Mostly Cloudy
3:53 AM 33.1 °F 28.7 °F 30.0 °F 89% 30.08 in 10.0 mi SE 4.6 mph - N/A   Overcast
4:53 AM 33.1 °F 28.7 °F 30.0 °F 89% 30.06 in 10.0 mi Variable 4.6 mph - N/A   Overcast
5:53 AM 34.0 °F - 30.9 °F 89% 30.04 in 10.0 mi Calm Calm - N/A   Overcast
6:53 AM 35.1 °F - 30.9 °F 85% 30.04 in 10.0 mi Calm Calm - N/A   Overcast
7:53 AM 35.1 °F - 30.9 °F 85% 30.04 in 10.0 mi Calm Calm - N/A   Overcast
8:53 AM 36.0 °F 32.1 °F 30.9 °F 82% 30.03 in 10.0 mi North 4.6 mph - N/A   Overcast
9:53 AM 37.0 °F 33.3 °F 30.9 °F 79% 30.02 in 10.0 mi Variable 4.6 mph - N/A   Overcast
10:53 AM 37.0 °F - 30.9 °F 79% 30.02 in 10.0 mi Calm Calm - N/A   Mostly Cloudy
11:53 AM 37.9 °F 32.7 °F 32.0 °F 79% 30.01 in 10.0 mi West 6.9 mph - N/A   Overcast
12:53 PM 37.9 °F - 33.1 °F 83% 30.01 in 10.0 mi Calm Calm - 0.00 in   Overcast
1:53 PM 39.0 °F 35.7 °F 33.1 °F 79% 30.02 in 10.0 mi Variable 4.6 mph - 0.00 in   Overcast
2:53 PM 39.0 °F 36.8 °F 33.1 °F 79% 30.00 in 10.0 mi Variable 3.5 mph - N/A   Overcast
3:53 PM 39.0 °F 35.7 °F 33.1 °F 79% 30.00 in 10.0 mi NE 4.6 mph - N/A   Mostly Cloudy
4:53 PM 39.0 °F 34.8 °F 33.1 °F 79% 29.98 in 10.0 mi North 5.8 mph - N/A   Mostly Cloudy
5:53 PM 39.0 °F 34.8 °F 33.1 °F 79% 29.99 in 10.0 mi Variable 5.8 mph - N/A   Overcast
6:53 PM 37.9 °F - 34.0 °F 86% 30.04 in 10.0 mi Calm Calm - N/A   Clear
7:53 PM 37.9 °F 35.5 °F 33.1 °F 83% 30.05 in 10.0 mi NNE 3.5 mph - N/A   Overcast
8:53 PM 37.9 °F - 33.1 °F 83% 30.07 in 10.0 mi Calm Calm - N/A   Overcast
9:53 PM 37.9 °F - 33.1 °F 83% 30.05 in 10.0 mi Calm Calm - N/A   Overcast
10:53 PM 39.9 °F 33.9 °F 33.1 °F 77% 30.06 in 10.0 mi West 9.2 mph - N/A   Overcast
11:53 PM 42.1 °F 39.2 °F 33.1 °F 70% 30.06 in 10.0 mi NW 4.6 mph - N/A   Overcast